Location: Holcomb Observatory and Planetarium
(39.8415°N, 86.1714°W)
Time: 21:35:56
(UTC-04:00)

Hubble Space Telescope - Visible Passes

Search period start: 28 March 2017 00:00
Search period end: 07 April 2017 00:00
Orbit: 538 x 542 km, 28.5° (Epoch: 27 March)

Date Brightness Start Highest point End Pass type
(mag) Time Alt. Az. Time Alt. Az. Time Alt. Az.
28 Mar 2.9 06:41:10 10° SSW 06:43:44 16° S 06:46:18 10° SE visible
29 Mar 2.8 06:31:23 12° SSW 06:33:37 17° S 06:36:16 10° SE visible
30 Mar 2.7 06:21:52 14° SSW 06:23:30 17° S 06:26:11 10° SE visible
31 Mar 2.6 06:12:23 15° SSW 06:13:23 17° S 06:16:02 10° SE visible
01 Apr 2.6 06:02:56 16° S 06:03:16 16° S 06:05:50 10° SSE visible
02 Apr 2.8 05:53:32 15° S 05:53:32 15° S 05:55:34 10° SSE visible
03 Apr 3.0 05:44:11 13° S 05:44:11 13° S 05:45:11 10° SSE visible
